Location: C�an Torras
(41.5052°N, 1.9280°E)
Time: 21:27:44
(UTC+00:00)

Cosmos 1340 - Pass Details

Date: 20 January 2021
Orbit: 501 x 504 km, 81.2° (Epoch: 02 March)

Event Time Altitude Azimuth Distance (km) Brightness Sun altitude
Rises 19:01:52 0° 190° (S) 2,582 6.5 -23.8°
Reaches altitude 10° 19:03:58 10° 191° (S) 1,702 5.5 -24.2°
Enters shadow 19:05:48 28° 194° (SSW) 975 4.2 -24.5°
